Montrose, CO

6:30 AM MDT on July 28, 2017 (GMT -0600)
Montrose Regional

Weather History for KMTJ - January, 2013

Change the Weather History Date:

Tuesday, January 29, 2013

  Actual Average Record
Temperature  
Mean Temperature 24 °F 28 °F  
Max Temperature 27 °F 40 °F 50 °F (1998)
Min Temperature 20 °F 17 °F 6 °F (2008)
Degree Days  
Heating Degree Days 41 37  
Month to date heating degree days 1362 1125  
Since 1 July heating degree days 3639 3733  
Cooling Degree Days 0 0  
Month to date cooling degree days 0 0  
Year to date cooling degree days 0 0  
Moisture  
Dew Point 15 °F    
Average Humidity 69    
Maximum Humidity 91    
Minimum Humidity 46    
Precipitation  
Precipitation T in 0.02 in 0.23 in (2002)
Month to date precipitation 0.57 0.61  
Year to date precipitation 0.57 0.61  
Sea Level Pressure  
Sea Level Pressure 29.92 in    
Wind  
Wind Speed 5 mph (NW)    
Max Wind Speed 16 mph    
Max Gust Speed 20 mph    
Visibility 10 miles    
Events Snow    
T = Trace of Precipitation, MM = Missing Value Source: NWS Daily Summary

Daily Weather History Graph

Daily Weather History Graph

Search for Another Location

Airport or City:

Trip Planner

Search our weather history database for the weather conditions in past years. The results will help you decide how hot, cold, wet, or windy it might be!

Date:

Astronomy

Jan. 29, 2013 Rise Set
Actual Time 7:19 AM MST 5:30 PM MST
Civil Twilight 6:51 AM MST 5:58 PM MST
Nautical Twilight 6:19 AM MST 6:30 PM MST
Astronomical Twilight 5:48 AM MST 7:01 PM MST
Moon 8:27 PM MST (1/29) 8:20 AM MST (1/29)
Length of Visible Light 11h 07m
Length of Day
10h 11m
Waning Gibbous, 93% of the Moon is Illuminated
Jan 29
Waning Gibbous
Feb 3
Last Quarter
Feb 10
New
Feb 17
First Quarter
Feb 25
Full

Hourly Weather History & Observations

Time (MST) Temp. Windchill Dew Point Humidity Pressure Visibility Wind Dir Wind Speed Gust Speed Precip Events Conditions
12:18 AM 24.8 °F 20.5 °F 19.4 °F 80% 29.82 in 10.0 mi NE 3.5 mph - 0.00 in   Overcast
12:45 AM 24.8 °F 20.5 °F 19.4 °F 80% 29.82 in 9.0 mi ENE 3.5 mph - 0.00 in Snow Light Snow
12:53 AM 24.1 °F 18.2 °F 19.0 °F 81% 29.82 in 9.0 mi ENE 4.6 mph - 0.00 in Snow Light Snow
1:53 AM 23.0 °F 12.4 °F 17.1 °F 78% 29.84 in 10.0 mi NW 10.4 mph - 0.00 in   Overcast
2:53 AM 23.0 °F 14.7 °F 18.0 °F 81% 29.82 in 9.0 mi West 6.9 mph - 0.00 in   Overcast
3:53 AM 21.9 °F - 15.1 °F 75% 29.81 in 10.0 mi Calm Calm - N/A   Overcast
4:53 AM 21.9 °F - 15.1 °F 75% 29.82 in 10.0 mi Calm Calm - N/A   Overcast
5:53 AM 21.9 °F 17.2 °F 12.9 °F 68% 29.83 in 10.0 mi North 3.5 mph - N/A   Overcast
6:53 AM 21.0 °F 13.4 °F 12.0 °F 68% 29.85 in 10.0 mi West 5.8 mph - N/A   Overcast
7:53 AM 21.0 °F 14.6 °F 12.0 °F 68% 29.88 in 9.0 mi NW 4.6 mph - 0.00 in   Overcast
8:53 AM 19.9 °F 13.4 °F 12.9 °F 74% 29.90 in 10.0 mi NW 4.6 mph - N/A   Overcast
9:31 AM 19.4 °F 10.4 °F 12.2 °F 74% 29.85 in 10.0 mi West 6.9 mph - N/A   Overcast
9:53 AM 19.9 °F 11.1 °F 12.0 °F 71% 29.90 in 9.0 mi West 6.9 mph - 0.00 in Snow Light Snow
10:49 AM 21.2 °F 16.4 °F 12.2 °F 68% 29.85 in 10.0 mi Variable 3.5 mph - N/A   Mostly Cloudy
10:53 AM 21.9 °F 17.2 °F 12.0 °F 66% 29.90 in 10.0 mi NW 3.5 mph - N/A   Mostly Cloudy
11:28 AM 21.2 °F - 12.2 °F 68% 29.85 in 10.0 mi Calm Calm - N/A   Mostly Cloudy
11:37 AM 23.0 °F 18.4 °F 12.2 °F 63% 29.84 in 10.0 mi East 3.5 mph - N/A   Scattered Clouds
11:53 AM 23.0 °F 18.4 °F 12.0 °F 63% 29.89 in 10.0 mi West 3.5 mph - N/A   Partly Cloudy
12:17 PM 24.8 °F 20.5 °F 12.2 °F 59% 29.83 in 10.0 mi Variable 3.5 mph - N/A   Mostly Cloudy
12:25 PM 23.0 °F 17.0 °F 12.2 °F 63% 29.83 in 10.0 mi SE 4.6 mph - N/A   Scattered Clouds
12:53 PM 24.1 °F - 10.9 °F 57% 29.88 in 10.0 mi Calm Calm - N/A   Clear
1:53 PM 26.1 °F 21.9 °F 10.9 °F 53% 29.87 in 10.0 mi Variable 3.5 mph - N/A   Clear
2:53 PM 26.1 °F 21.9 °F 9.0 °F 49% 29.87 in 10.0 mi Variable 3.5 mph - N/A   Mostly Cloudy
3:53 PM 25.0 °F 15.5 °F 14.0 °F 63% 29.90 in 10.0 mi NW 9.2 mph - N/A   Overcast
4:53 PM 25.0 °F 18.1 °F 15.1 °F 66% 29.93 in 10.0 mi WNW 5.8 mph - N/A   Clear
5:53 PM 24.1 °F 15.2 °F 15.1 °F 69% 29.98 in 10.0 mi WNW 8.1 mph - N/A   Overcast
6:53 PM 21.9 °F 10.4 °F 18.0 °F 85% 30.01 in 10.0 mi NW 11.5 mph - N/A   Partly Cloudy
7:20 PM 21.2 °F 12.6 °F 17.6 °F 86% 29.96 in 10.0 mi NNW 6.9 mph - N/A   Mostly Cloudy
7:53 PM 21.0 °F 11.4 °F 18.0 °F 88% 30.06 in 10.0 mi North 8.1 mph - N/A   Mostly Cloudy
8:03 PM 21.2 °F 11.7 °F 17.6 °F 86% 29.98 in 10.0 mi NNW 8.1 mph - N/A   Scattered Clouds
8:53 PM 19.9 °F 13.4 °F 18.0 °F 92% 30.09 in 10.0 mi NW 4.6 mph - N/A   Partly Cloudy
9:04 PM 21.2 °F - 17.6 °F 86% 30.00 in 10.0 mi Calm Calm - N/A   Mostly Cloudy
9:27 PM 21.2 °F - 17.6 °F 86% 30.01 in 10.0 mi Calm Calm - N/A   Mostly Cloudy
9:39 PM 21.2 °F - 17.6 °F 86% 30.01 in 10.0 mi Calm Calm - N/A   Mostly Cloudy
9:53 PM 21.0 °F - 18.0 °F 88% 30.10 in 10.0 mi Calm Calm - N/A   Mostly Cloudy
10:26 PM 21.2 °F - 17.6 °F 86% 30.03 in 10.0 mi Calm Calm - N/A   Overcast
10:53 PM 19.9 °F 14.9 °F 17.1 °F 89% 30.12 in 10.0 mi SSW 3.5 mph - N/A   Overcast
11:53 PM 21.0 °F 16.2 °F 17.1 °F 85% 30.13 in 10.0 mi SSE 3.5 mph - N/A   Overcast